COSMOS 1193

Satellite information

Favourite Embed

Satellite Type and Status

PAYLOADIN ORBIT

Key statistics

Satellite COSMOS 1193 at a glance.

Uptime

16599

Days in orbit

Revolutions

≈ 12.5

Per day

Orbit

LEO

Low Earth Orbit

Inclination

74.0

Latest

Satellite identification and parameters

Extended collection of information and parameters for COSMOS 1193.

Object identification

Identified? True

Debris? False

Object name: COSMOS 1193

International designator: 1980-058B

Object number (NORAD): 11876

Object ID (CCSDS): 11876

Country: COMMONWEALTH OF INDEPENDENT STATES (CIS)

Current information (Y/N): Y

RCS size: MEDIUM

Orbital parameters

Period: 114.746 minutes

Inclination: 74.0193 deg

SMA: 7821.998 km

Apoapsis: 1474.085 km

Periapsis: 1413.641 km

RAAN: 353.417 deg

Eccentricy: 0.00386371

Argument of periapsis: 154.0505 deg

Mean anomaly: 322.2307 deg

Mean motion: 12.54949461 rev/day

Mean motion (dot): -0.00000004 rev/day2

B* drag term: 0.000074152007 1/REarth

Two-line elements (TLE)

Creation date: Dec. 18, 2025, 8:02 p.m.

Reference frame: TEME

Reference center: EARTH

Epoch: Dec. 18, 2025, 11:14 a.m. UTC

TLE line 0: 0 COSMOS 1193

TLE line 1: 1 11876U 80058B 25352.46857634 -.00000004 00000-0 74152-4 0 9992

TLE line 2: 2 11876 74.0193 353.4170 0038637 154.0505 322.2307 12.54949461 81833

Live tracking on map

Real-time ground track for satellite COSMOS 1193.

In-orbit conjunctions

There are no conjunctions computed for COSMOS 1193, at the moment. Check back to stay up to date, as we update our databases every day.

Go to all conjunctions

Associated space launch

Optical film-return reconnaissance satellite

COSMOS 1193 was lifted into orbit during the mission ‘Soyuz U | Zenit-6U 22’, on board a Soyuz U space rocket.

The launch took place on July 9, 1980, 12:40 p.m. from 41/1.

For more information about the launch, click the button.

Launch to space Soyuz U | Zenit-6U 22
Soyuz U | Zenit-6U 22

Agency: N/A

Status: Launch Successful

Launch date: July 9, 1980, 12:40 p.m. UTC

Rocket: Soyuz U

Launch pad: 41/1

Location: Plesetsk Cosmodrome, Russian Federation

...

Latest news about this satellite

There are no fresh news available about this satellite. Check back as we update our databases every day.


Newsletter sign-up

Weekly statistics, charts and insights to help you stay on top of the space industry.